FW3791 Weather Reports


time (UTC)temp
F
wind
direction
speed
knots
gust
knots
rain 1hr
in
rain 24hr
in
rain mn
in
humidity
%
barometer
mb
20260510094702 71 126 0.0 0.9 0.00 0.00 0.00 85 1007.8
20260510094201 71 125 0.0 0.9 0.00 0.00 0.00 85 1007.8
20260510093647 71 125 0.0 0.9 0.00 0.00 0.00 86 1007.8
20260510093129 72 124 0.0 0.0 0.00 0.00 0.00 87 1007.7
20260510092553 72 124 0.0 0.0 0.00 0.00 0.00 87 1007.7
20260510092043 72 124 0.0 0.0 0.00 0.00 0.00 87 1007.7
20260510091535 72 124 0.0 0.9 0.00 0.00 0.00 87 1007.6
20260510091245 73 124 0.0 1.7 0.00 0.00 0.00 87 1007.6
20260510090505 73 123 0.0 1.7 0.00 0.00 0.00 87 1007.6
20260510090003 73 122 0.0 1.7 0.00 0.00 0.00 87 1007.6
20260510085501 73 122 0.0 1.7 0.00 0.00 0.00 87 1007.6
20260510084953 73 124 0.9 2.6 0.00 0.00 0.00 86 1007.6
20260510084431 73 136 0.9 3.5 0.00 0.00 0.00 86 1007.6
20260510083923 73 132 0.9 3.5 0.00 0.00 0.00 85 1007.6
20260510083417 73 120 0.9 3.5 0.00 0.00 0.00 85 1007.6
20260510083146 73 131 0.9 3.5 0.00 0.00 0.00 84 1007.5
20260510082415 73 127 0.9 2.6 0.00 0.00 0.00 84 1007.5
20260510081917 73 80 0.9 3.5 0.00 0.00 0.00 84 1007.5
20260510081415 74 143 0.9 3.5 0.00 0.00 0.00 84 1007.5
20260510080915 74 139 1.7 3.5 0.00 0.00 0.00 83 1007.5
20260510080405 74 160 1.7 3.5 0.00 0.00 0.00 83 1007.4
20260510075905 74 159 0.9 3.5 0.00 0.00 0.00 83 1007.4
20260510075404 74 154 1.7 3.5 0.00 0.00 0.00 84 1007.5
20260510074904 74 127 1.7 4.3 0.00 0.00 0.00 84 1007.5
20260510074404 74 156 1.7 4.3 0.00 0.00 0.00 83 1007.5
20260510073904 74 146 1.7 4.3 0.00 0.00 0.00 83 1007.6
20260510073400 74 156 1.7 7.0 0.00 0.00 0.00 83 1007.5
20260510072902 74 165 1.7 7.0 0.00 0.00 0.00 83 1007.6
20260510072400 74 175 1.7 5.2 0.00 0.00 0.00 84 1007.5
20260510071900 75 170 1.7 5.2 0.00 0.00 0.00 84 1007.6
20260510071400 75 188 0.9 5.2 0.00 0.00 0.00 84 1007.6
20260510071138 75 145 0.9 5.2 0.00 0.00 0.00 84 1007.6
20260510070358 75 127 0.9 3.5 0.00 0.00 0.00 84 1007.6
20260510065859 75 150 1.7 5.2 0.00 0.00 0.00 84 1007.6
20260510065354 75 160 0.9 5.2 0.00 0.00 0.00 83 1007.6
20260510064855 75 166 0.9 3.5 0.00 0.00 0.00 83 1007.6
20260510064356 75 167 1.7 5.2 0.00 0.00 0.00 83 1007.7
20260510063852 75 157 1.7 5.2 0.00 0.00 0.00 83 1007.7
20260510063353 75 163 1.7 4.3 0.00 0.00 0.00 83 1007.7
20260510062853 76 151 1.7 6.1 0.00 0.00 0.00 84 1007.6
20260510062353 76 166 1.7 6.1 0.00 0.00 0.00 83 1007.6
20260510061852 76 168 1.7 6.1 0.00 0.00 0.00 83 1007.7
20260510061631 76 154 1.7 6.1 0.00 0.00 0.00 83 1007.7
20260510060853 76 154 0.9 4.3 0.00 0.00 0.00 83 1007.9
20260510060350 76 153 1.7 4.3 0.00 0.00 0.00 83 1007.9
20260510055850 76 140 1.7 4.3 0.00 0.00 0.00 82 1007.9
20260510055646 76 126 1.7 2.6 0.00 0.00 0.00 81 1007.8
20260510055641 76 138 1.7 4.3 0.00 0.00 0.00 81 1007.8
20260510054349 76 137 1.7 2.6 0.00 0.00 0.00 81 1007.8
20260510053848 76 124 1.7 2.6 0.00 0.00 0.00 80 1007.7
20260510053346 76 116 1.7 3.5 0.00 0.00 0.00 80 1007.7
20260510053131 76 80 1.7 3.5 0.00 0.00 0.00 80 1007.6
20260510052336 76 139 0.9 3.5 0.00 0.00 0.00 79 1007.6
20260510051836 76 123 0.9 3.5 0.00 0.00 0.00 79 1007.6
20260510051334 76 139 0.9 3.5 0.00 0.00 0.00 79 1007.6
20260510050835 76 130 1.7 3.5 0.00 0.00 0.00 79 1007.6
20260510050332 76 146 1.7 3.5 0.00 0.00 0.00 79 1007.6
20260510050109 76 139 1.7 4.3 0.00 0.00 0.00 79 1007.6
20260510045607 76 145 1.7 4.3 0.00 0.00 0.00 79 1007.5
20260510044821 76 142 0.9 4.3 0.00 0.00 0.00 79 1007.5
20260510044321 76 124 0.9 3.5 0.00 0.00 0.00 78 1007.5
20260510043821 76 133 0.9 2.6 0.00 0.00 0.00 78 1007.5
20260510043559 76 133 0.9 2.6 0.00 0.00 0.00 78 1007.5
20260510042820 77 104 0.9 2.6 0.00 0.00 0.00 78 1007.5
20260510042310 77 116 0.9 2.6 0.00 0.00 0.00 78 1007.5
20260510042040 77 119 0.9 2.6 0.00 0.00 0.00 77 1007.4
20260510041310 77 122 0.9 2.6 0.00 0.00 0.00 77 1007.3
20260510040807 77 119 0.9 2.6 0.00 0.00 0.00 77 1007.3
20260510040306 77 120 0.0 1.7 0.00 0.00 0.00 76 1007.4
20260510035806 77 120 0.0 0.0 0.00 0.00 0.00 76 1007.3
20260510035306 78 120 0.0 0.0 0.00 0.00 0.00 76 1007.3
20260510034754 78 120 0.0 0.0 0.00 0.00 0.00 76 1007.3
20260510034231 78 120 0.0 0.0 0.00 0.00 0.00 76 1007.3
20260510033939 78 120 0.0 0.0 0.00 0.00 0.00 75 1007.2
20260510033202 78 120 0.0 0.0 0.00 0.00 0.00 76 1007.1
20260510032700 78 120 0.0 0.9 0.00 0.00 0.00 75 1007.1
20260510032418 79 119 0.9 2.6 0.00 0.00 0.00 74 1007.1
20260510031648 79 116 0.0 2.6 0.00 0.00 0.00 74 1007.1
20260510031141 79 112 0.0 1.7 0.00 0.00 0.00 74 1007.1
20260510030642 79 112 0.0 2.6 0.00 0.00 0.00 73 1006.9
20260510030413 79 111 0.9 2.6 0.00 0.00 0.00 73 1006.8
20260510025630 79 110 0.9 2.6 0.00 0.00 0.00 73 1006.8
20260510025110 80 106 0.0 2.6 0.00 0.00 0.00 73 1006.8
20260510024605 80 105 0.9 2.6 0.00 0.00 0.00 72 1006.9
20260510024106 80 104 0.9 2.6 0.00 0.00 0.00 72 1006.8
20260510023602 80 100 0.9 2.6 0.00 0.00 0.00 72 1006.7
20260510023059 80 96 0.9 2.6 0.00 0.00 0.00 71 1006.7
20260510022600 80 96 0.0 2.6 0.00 0.00 0.00 71 1006.7
20260510022056 81 85 0.0 2.6 0.00 0.00 0.00 71 1006.7
20260510021559 81 75 0.0 2.6 0.00 0.00 0.00 70 1006.7
20260510021048 81 89 0.0 2.6 0.00 0.00 0.00 69 1006.5
20260510020548 81 69 0.9 2.6 0.00 0.00 0.00 69 1006.6
20260510020046 81 113 0.9 2.6 0.00 0.00 0.00 69 1006.5
20260510015546 82 99 0.9 2.6 0.00 0.00 0.00 69 1006.5
20260510015047 82 105 0.9 2.6 0.00 0.00 0.00 68 1006.4
20260510015041 82 75 0.9 2.6 0.00 0.00 0.00 68 1006.3
20260510014036 82 102 0.9 2.6 0.00 0.00 0.00 68 1006.2
20260510013534 82 80 0.9 2.6 0.00 0.00 0.00 67 1006.1
20260510013035 83 68 0.9 2.6 0.00 0.00 0.00 66 1006.0
20260510012534 83 101 0.9 2.6 0.00 0.00 0.00 66 1006.0
20260510012025 83 46 0.9 2.6 0.00 0.00 0.00 65 1006.0
20260510011523 83 70 0.9 2.6 0.00 0.00 0.00 65 1005.9
20260510011254 83 93 0.9 2.6 0.00 0.00 0.00 63 1005.9
20260510010524 84 68 0.9 2.6 0.00 0.00 0.00 64 1005.9
20260510010023 84 35 0.9 2.6 0.00 0.00 0.00 63 1005.8
20260510005524 84 98 0.9 2.6 0.00 0.00 0.00 62 1005.7
20260510005021 84 93 0.9 2.6 0.00 0.00 0.00 62 1005.6
20260510004520 84 12 0.9 2.6 0.00 0.00 0.00 62 1005.6
20260510004016 85 31 0.0 1.7 0.00 0.00 0.00 65 1005.5
20260510003510 85 37 0.9 2.6 0.00 0.00 0.00 68 1005.6
20260510002959 85 31 0.9 2.6 0.00 0.00 0.00 69 1005.5
20260510002500 85 35 0.0 2.6 0.00 0.00 0.00 69 1005.4
20260510002230 85 47 0.0 1.7 0.00 0.00 0.00 75 1005.4
20260510001418 85 46 0.0 1.7 0.00 0.00 0.00 76 1005.4
20260510000918 86 109 0.0 1.7 0.00 0.00 0.00 75 1005.4
20260510000404 86 116 0.0 1.7 0.00 0.00 0.00 74 1005.3
20260509235902 86 125 0.0 0.9 0.00 0.00 0.00 74 1005.3
20260509235358 86 126 0.0 0.0 0.00 0.00 0.00 73 1005.2
20260509234858 87 126 0.0 0.9 0.00 0.00 0.00 74 1005.1
20260509234619 87 126 0.9 2.6 0.00 0.00 0.00 73 1005.1
20260509233838 87 125 0.9 3.5 0.00 0.00 0.00 73 1005.2
20260509233335 88 119 0.9 3.5 0.00 0.00 0.00 73 1005.4
20260509232836 88 162 0.9 3.5 0.00 0.00 0.00 73 1005.4
20260509232328 88 160 0.9 4.3 0.00 0.00 0.00 73 1005.5
20260509231829 88 166 1.7 5.2 0.00 0.00 0.00 73 1005.6
20260509231328 89 162 1.7 5.2 0.00 0.00 0.00 71 1005.6
20260509230828 89 168 1.7 4.3 0.00 0.00 0.00 73 1005.6
20260509230327 89 160 1.7 6.1 0.00 0.00 0.00 71 1005.6
20260509225818 89 200 1.7 6.1 0.00 0.00 0.00 71 1005.7
20260509225317 90 198 0.9 4.3 0.00 0.00 0.00 70 1005.5
20260509224817 90 118 1.7 4.3 0.00 0.00 0.00 70 1005.6
20260509224553 90 115 0.9 3.5 0.00 0.00 0.00 69 1005.6
20260509224048 90 114 0.9 3.5 0.00 0.00 0.00 69 1005.6
20260509223308 91 123 0.9 3.5 0.00 0.00 0.00 69 1005.6
20260509222808 91 170 1.7 5.2 0.00 0.00 0.00 70 1005.6
20260509222307 91 193 1.7 5.2 0.00 0.00 0.00 66 1005.6
20260509221804 91 161 1.7 5.2 0.00 0.00 0.00 69 1005.6
20260509221304 91 162 1.7 5.2 0.00 0.00 0.00 68 1005.5
20260509220756 91 119 0.9 3.5 0.00 0.00 0.00 69 1005.5
20260509220254 91 159 0.9 5.2 0.00 0.00 0.00 66 1005.5
20260509215754 91 156 1.7 5.2 0.00 0.00 0.00 66 1005.7
20260509215253 91 179 2.6 6.1 0.00 0.00 0.00 68 1005.6
20260509215026 91 177 2.6 7.0 0.00 0.00 0.00 66 1005.6
20260509214244 91 162 1.7 7.0 0.00 0.00 0.00 70 1005.7
20260509213744 91 158 1.7 6.1 0.00 0.00 0.00 71 1005.7
20260509213244 91 204 1.7 7.0 0.00 0.00 0.00 70 1005.8
20260509212741 90 178 2.6 7.0 0.00 0.00 0.00 66 1005.8
20260509212241 90 147 2.6 5.2 0.00 0.00 0.00 70 1005.9
20260509211741 90 166 2.6 7.8 0.00 0.00 0.00 69 1005.7
20260509211514 90 203 2.6 7.8 0.00 0.00 0.00 60 1005.7
20260509211012 90 275 2.6 7.8 0.00 0.00 0.00 62 1005.7
20260509210240 90 176 1.7 6.1 0.00 0.00 0.00 71 1005.9
20260509210014 90 261 0.9 6.1 0.00 0.00 0.00 70 1006.0
20260509205240 90 115 1.7 7.8 0.00 0.00 0.00 71 1006.2
20260509205012 90 127 1.7 7.8 0.00 0.00 0.00 72 1006.2
20260509204232 90 85 1.7 7.0 0.00 0.00 0.00 73 1006.3
20260509203722 90 170 2.6 7.8 0.00 0.00 0.00 73 1006.3
20260509203223 90 174 2.6 7.8 0.00 0.00 0.00 73 1006.3
20260509202722 90 144 2.6 7.0 0.00 0.00 0.00 71 1006.4
20260509202445 90 221 2.6 7.0 0.00 0.00 0.00 73 1006.5
20260509201712 90 168 1.7 6.1 0.00 0.00 0.00 73 1006.5
20260509201209 90 159 2.6 8.7 0.00 0.00 0.00 73 1006.6
20260509200943 90 158 2.6 8.7 0.00 0.00 0.00 72 1006.7
20260509200210 90 157 1.7 7.0 0.00 0.00 0.00 72 1006.8
20260509195940 90 80 1.7 5.2 0.00 0.00 0.00 70 1007.1
20260509195200 90 142 1.7 4.3 0.00 0.00 0.00 70 1007.1
20260509194936 89 80 1.7 6.1 0.00 0.00 0.00 71 1007.3
20260509194158 89 203 1.7 6.1 0.00 0.00 0.00 70 1007.4
20260509193658 89 161 1.7 6.1 0.00 0.00 0.00 65 1007.4
20260509193422 89 164 1.7 6.1 0.00 0.00 0.00 66 1007.4
20260509192921 89 159 1.7 6.1 0.00 0.00 0.00 68 1007.5
20260509192149 89 158 1.7 6.1 0.00 0.00 0.00 73 1007.6
20260509191648 88 221 1.7 6.1 0.00 0.00 0.00 68 1007.7
20260509191437 88 189 1.7 7.8 0.00 0.00 0.00 69 1007.6
20260509190648 88 194 2.6 7.8 0.00 0.00 0.00 71 1007.7
20260509190142 87 137 2.6 7.0 0.00 0.00 0.00 68 1007.8
20260509185642 87 170 2.6 6.1 0.00 0.00 0.00 70 1007.7
20260509185139 87 146 2.6 7.8 0.00 0.00 0.00 72 1007.7
20260509184639 86 199 2.6 7.8 0.00 0.00 0.00 72 1007.7
20260509184140 86 157 2.6 6.1 0.00 0.00 0.00 71 1007.7
20260509183628 86 193 2.6 10.4 0.00 0.00 0.00 72 1007.8
20260509183128 85 173 2.6 10.4 0.00 0.00 0.00 71 1007.7
20260509182628 85 165 1.7 5.2 0.00 0.00 0.00 72 1007.8
20260509182402 85 181 1.7 6.1 0.00 0.00 0.00 74 1008.0
20260509181626 85 186 1.7 6.1 0.00 0.00 0.00 79 1008.3
20260509181127 85 197 2.6 6.1 0.00 0.00 0.00 75 1008.2
20260509180620 85 197 2.6 7.0 0.00 0.00 0.00 76 1008.2
20260509180352 84 183 2.6 7.0 0.00 0.00 0.00 75 1008.1
20260509175849 84 175 1.7 5.2 0.00 0.00 0.00 77 1008.1
20260509175116 83 149 1.7 5.2 0.00 0.00 0.00 77 1008.2
20260509174618 83 262 1.7 6.1 0.00 0.00 0.00 78 1008.3
20260509174339 82 198 1.7 6.1 0.00 0.00 0.00 78 1008.3
20260509173607 82 167 1.7 7.8 0.00 0.00 0.00 80 1008.4
20260509173107 82 239 2.6 7.8 0.00 0.00 0.00 80 1008.4
20260509172606 82 153 2.6 10.4 0.00 0.00 0.00 82 1008.3
20260509172107 81 166 2.6 10.4 0.00 0.00 0.00 84 1008.2
20260509171607 81 167 1.7 7.0 0.00 0.00 0.00 84 1008.3
20260509171106 80 214 1.7 7.0 0.00 0.00 0.00 85 1008.4
20260509170604 80 170 2.6 7.0 0.00 0.00 0.00 87 1008.4
20260509165845 79 183 1.7 5.2 0.00 0.00 0.00 91 1008.4
20260509165839 79 187 1.7 5.2 0.00 0.00 0.00 90 1008.4
20260509164557 78 167 1.7 6.1 0.00 0.00 0.00 92 1008.4
20260509164052 78 189 1.7 6.1 0.00 0.00 0.00 92 1008.3
20260509163554 78 242 1.7 6.1 0.00 0.00 0.00 93 1008.4
20260509163038 77 211 1.7 6.1 0.00 0.00 0.00 93 1008.5
20260509162528 77 160 1.7 5.2 0.00 0.00 0.00 93 1008.5
20260509162027 77 274 0.0 4.3 0.00 0.00 0.00 93 1008.5
20260509161528 76 158 0.9 6.1 0.00 0.00 0.00 93 1008.6
20260509161020 76 198 0.9 6.1 0.00 0.00 0.00 94 1008.5
20260509160510 76 112 1.7 5.2 0.00 0.00 0.00 93 1008.4
20260509160009 75 135 1.7 6.1 0.00 0.00 0.00 94 1008.3
20260509155509 75 161 1.7 6.1 0.00 0.00 0.00 94 1008.3
20260509155009 74 167 1.7 6.1 0.00 0.00 0.00 94 1008.2
20260509154509 74 133 2.6 10.4 0.00 0.00 0.00 94 1008.3
20260509154010 74 172 2.6 10.4 0.00 0.00 0.00 94 1008.1
20260509153513 73 118 1.7 3.5 0.00 0.00 0.00 94 1008.3
20260509153508 73 158 1.7 5.2 0.00 0.00 0.00 94 1008.1
20260509152731 73 141 1.7 6.1 0.00 0.00 0.00 94 1008.5
20260509152000 73 172 1.7 6.1 0.00 0.00 0.00 94 1008.4
20260509151501 72 151 0.9 5.2 0.00 0.00 0.00 94 1008.3
20260509151001 72 111 0.9 2.6 0.00 0.00 0.00 94 1008.6
20260509150458 72 119 0.0 1.7 0.00 0.00 0.00 94 1008.7
20260509150205 72 122 0.0 2.6 0.00 0.00 0.00 94 1008.6
20260509145419 72 122 0.9 2.6 0.00 0.00 0.00 93 1008.6
20260509144916 72 122 0.9 2.6 0.00 0.00 0.00 93 1008.7
20260509144409 72 108 0.9 2.6 0.00 0.00 0.00 93 1008.8
20260509143910 72 117 0.9 2.6 0.00 0.00 0.00 93 1008.7
20260509143402 72 119 0.9 3.5 0.00 0.00 0.00 93 1008.8
20260509142859 72 118 0.9 3.5 0.00 0.00 0.00 93 1008.9
20260509142400 72 114 0.9 2.6 0.00 0.00 0.00 93 1008.8
20260509141857 72 80 0.0 1.7 0.00 0.00 0.00 94 1008.7
20260509141358 72 16 0.0 0.9 0.00 0.00 0.00 94 1008.4
20260509140854 71 359 0.0 0.9 0.00 0.00 0.00 94 1008.1
20260509140346 71 357 0.0 2.6 0.00 0.00 0.00 94 1007.7
20260509135841 71 357 0.0 2.6 0.00 0.00 0.00 93 1007.6
20260509135340 71 0 0.0 0.9 0.00 0.00 0.00 93 1007.7
20260509134836 71 0 0.0 1.7 0.00 0.00 0.00 93 1007.7
20260509134331 71 0 0.9 2.6 0.00 0.00 0.00 93 1007.8
20260509133826 71 359 0.9 2.6 0.00 0.00 0.00 93 1007.8
20260509133326 71 1 0.0 1.7 0.00 0.00 0.00 93 1007.9
20260509132804 71 12 0.0 2.6 0.00 0.00 0.00 93 1007.9
20260509132512 71 12 0.0 2.6 0.00 0.00 0.00 93 1008.0
20260509131741 71 33 0.0 0.9 0.00 0.00 0.00 93 1008.1
20260509131241 71 34 0.9 4.3 0.00 0.00 0.00 93 1007.9
20260509130728 71 34 0.9 4.3 0.00 0.00 0.00 93 1007.9
20260509130221 71 33 0.0 2.6 0.00 0.00 0.00 93 1008.1
20260509125714 71 22 0.9 2.6 0.00 0.00 0.00 93 1007.8
20260509125155 71 22 0.9 4.3 0.00 0.00 0.00 93 1007.8
20260509124926 71 24 0.9 4.3 0.00 0.00 0.00 93 1007.7
20260509124424 71 25 0.9 4.3 0.00 0.00 0.00 93 1007.7
20260509123644 71 25 1.7 5.2 0.00 0.00 0.00 93 1007.8
20260509123119 71 357 1.7 5.2 0.00 0.00 0.00 93 1008.0
20260509122616 71 29 0.9 4.3 0.00 0.00 0.00 93 1008.0
20260509122117 71 54 0.0 2.6 0.00 0.00 0.00 93 1007.8
20260509121611 71 93 0.9 2.6 0.00 0.00 0.00 93 1007.9
20260509121340 71 53 0.9 4.3 0.00 0.00 0.00 93 1007.9
20260509120604 71 33 1.7 4.3 0.00 0.00 0.00 93 1008.0
20260509115601 71 22 1.7 6.1 0.00 0.00 0.00 93 1007.8
20260509115101 71 16 2.6 6.1 0.00 0.00 0.00 93 1008.0
20260509114601 71 343 2.6 6.1 0.00 0.00 0.00 93 1008.1
20260509114102 71 6 2.6 7.0 0.00 0.00 0.00 93 1008.1
20260509113602 71 354 2.6 7.0 0.00 0.00 0.00 93 1008.0
20260509113101 71 4 2.6 5.2 0.00 0.00 0.00 93 1008.0
20260509112834 71 351 1.7 5.2 0.00 0.00 0.00 93 1007.8
20260509112336 71 4 0.9 3.5 0.00 0.00 0.00 93 1007.8
20260509111602 71 359 0.9 2.6 0.00 0.00 0.00 93 1007.6
20260509111059 71 31 0.9 3.5 0.00 0.00 0.00 93 1007.5
20260509110552 71 33 0.9 3.5 0.00 0.00 0.00 93 1007.4
20260509110030 71 25 0.9 2.6 0.00 0.00 0.00 93 1007.3
20260509105520 71 24 0.9 3.5 0.00 0.00 0.00 93 1007.3
20260509105017 71 34 0.0 3.5 0.00 0.00 0.00 93 1007.2
20260509104518 71 37 0.9 1.7 0.00 0.00 0.00 93 1007.3
20260509104248 71 32 0.9 3.5 0.00 0.00 0.00 93 1007.5
20260509103747 71 29 0.9 3.5 0.00 0.00 0.00 93 1007.5
20260509103005 71 43 0.0 3.5 0.00 0.00 0.00 93 1007.5
20260509102506 71 44 0.9 3.5 0.00 0.00 0.00 93 1007.5
20260509102004 71 27 0.9 2.6 0.00 0.00 0.00 93 1007.5
20260509101459 71 32 0.9 3.5 0.00 0.00 0.00 93 1007.4
20260509101000 71 26 1.7 4.3 0.00 0.00 0.00 93 1007.5
20260509100456 71 11 1.7 5.2 0.00 0.00 0.00 93 1007.4
20260509095944 71 29 1.7 5.2 0.00 0.00 0.00 93 1007.3
20260509095442 71 31 1.7 4.3 0.00 0.00 0.00 93 1007.2
20260509095214 71 32 1.7 5.2 0.00 0.00 0.00 93 1006.9